Weather History for Port Angeles, WA

Change the Weather History Date:

Wednesday, December 18, 2013

  Actual Average Record
Temperature  
Mean Temperature 40 °F -  
Max Temperature 45 °F 45 °F 54 °F (1979)
Min Temperature 30 °F 34 °F 17 °F (1964)
Degree Days  
Heating Degree Days 26    
Moisture  
Dew Point 31 °F    
Average Humidity 68    
Maximum Humidity 86    
Minimum Humidity 46    
Precipitation  
Precipitation 0.00 in - - ()
Sea Level Pressure  
Sea Level Pressure 30.11 in    
Wind  
Wind Speed 11 mph (WNW)    
Max Wind Speed 20 mph    
Max Gust Speed 26 mph    
Visibility 10 miles    
Events      
Averages and records for this station are not official NWS values.
T = Trace of Precipitation, MM = Missing Value Source: NWS Daily Summary

Daily Weather History Graph

Daily Weather History Graph

Search for Another Location

Airport:

Trip Planner

Search our weather history database for the weather conditions in past years. The results will help you decide how hot, cold, wet, or windy it might be!

Date:

Astronomy

Dec. 18, 2013 Rise Set
Actual Time 8:00 AM PST 4:21 PM PST
Civil Twilight 7:23 AM PST 4:58 PM PST
Nautical Twilight 6:43 AM PST 5:37 PM PST
Astronomical Twilight 6:05 AM PST 6:15 PM PST
Moon 6:05 PM PST (12/18) 8:37 AM PST (12/18)
Length of Visible Light 9h 34m
Length of Day
8h 21m
Full, 98% of the Moon is Illuminated
Dec 18
Full
Dec 25
Last Quarter
Jan 1
New
Jan 7
First Quarter
Jan 15
Full

Hourly Weather History & Observations

Time (PST) Temp. Windchill Dew Point Humidity Pressure Visibility Wind Dir Wind Speed Gust Speed Precip Events Conditions
12:53 AM 42.1 °F 35.2 °F 37.0 °F 82% 30.11 in 10.0 mi WSW 12.7 mph - N/A   Scattered Clouds
1:53 AM 43.0 °F 36.8 °F 37.0 °F 80% 30.12 in 10.0 mi West 11.5 mph - N/A   Overcast
2:53 AM 42.1 °F 36.6 °F 36.0 °F 79% 30.12 in 10.0 mi West 9.2 mph - N/A   Overcast
3:53 AM 43.0 °F 37.2 °F 39.0 °F 86% 30.11 in 10.0 mi WNW 10.4 mph - N/A   Mostly Cloudy
4:53 AM 42.1 °F 36.6 °F 36.0 °F 79% 30.10 in 10.0 mi West 9.2 mph - N/A   Overcast
5:53 AM 45.0 °F 38.5 °F 34.0 °F 65% 30.09 in 10.0 mi West 13.8 mph - N/A   Partly Cloudy
6:53 AM 44.1 °F 37.4 °F 32.0 °F 63% 30.08 in 10.0 mi WNW 13.8 mph - N/A   Clear
7:53 AM 42.1 °F 35.2 °F 33.1 °F 70% 30.08 in 10.0 mi WNW 12.7 mph - N/A   Mostly Cloudy
8:53 AM 42.1 °F 36.1 °F 28.9 °F 60% 30.10 in 10.0 mi WNW 10.4 mph 18.4 mph N/A   Mostly Cloudy
9:53 AM 43.0 °F 36.4 °F 28.0 °F 56% 30.10 in 10.0 mi NW 12.7 mph 25.3 mph N/A   Clear
10:53 AM 44.1 °F 35.9 °F 26.1 °F 49% 30.09 in 10.0 mi WNW 19.6 mph 25.3 mph N/A   Clear
11:53 AM 45.0 °F 37.4 °F 25.0 °F 46% 30.07 in 10.0 mi WNW 18.4 mph 25.3 mph N/A   Clear
12:53 PM 45.0 °F 37.9 °F 27.0 °F 49% 30.05 in 10.0 mi WNW 16.1 mph 26.5 mph N/A   Mostly Cloudy
1:53 PM 44.1 °F 37.7 °F 28.9 °F 55% 30.05 in 10.0 mi WNW 12.7 mph - N/A   Mostly Cloudy
2:53 PM 43.0 °F 38.2 °F 27.0 °F 53% 30.05 in 10.0 mi NW 8.1 mph - N/A   Clear
3:53 PM 39.9 °F 33.9 °F 26.1 °F 58% 30.07 in 10.0 mi WNW 9.2 mph - N/A   Clear
4:53 PM 36.0 °F - 25.0 °F 64% 30.08 in 10.0 mi Calm Calm - N/A   Mostly Cloudy
5:53 PM 39.0 °F 36.8 °F 30.9 °F 73% 30.10 in 10.0 mi NNW 3.5 mph - N/A   Overcast
6:53 PM 37.0 °F 32.4 °F 32.0 °F 82% 30.12 in 10.0 mi WSW 5.8 mph - 0.00 in   Overcast
7:53 PM 35.1 °F 32.2 °F 30.9 °F 85% 30.13 in 10.0 mi WSW 3.5 mph - N/A   Mostly Cloudy
8:53 PM 37.9 °F 34.4 °F 32.0 °F 79% 30.19 in 10.0 mi NNW 4.6 mph - 0.00 in   Overcast
9:53 PM 39.0 °F 34.0 °F 30.0 °F 70% 30.21 in 10.0 mi Variable 6.9 mph - N/A   Overcast
10:05 PM 39.9 °F 37.8 °F 28.9 °F 65% 30.20 in 10.0 mi Variable 3.5 mph - N/A   Overcast
10:53 PM 34.0 °F 28.8 °F 27.0 °F 75% 30.20 in 10.0 mi SSE 5.8 mph - N/A   Clear
11:53 PM 30.0 °F 25.2 °F 26.1 °F 85% 30.24 in 10.0 mi Variable 4.6 mph - N/A   Partly Cloudy